FW4092 Weather Reports


time (UTC)temp
C
wind
direction
speed
KPH
gust
KPH
rain 1hr
cm
rain 24hr
cm
rain mn
cm
humidity
%
barometer
mb
20260502210059 24 0 9.7 24.1 0.00 0.00 0.00 35 1010.5
20260502205548 24 5 8.0 17.7 0.00 0.00 0.00 37 1010.6
20260502205042 24 24 8.0 19.3 0.00 0.00 0.00 37 1010.7
20260502204816 23 348 6.4 17.7 0.00 0.00 0.00 38 1010.7
20260502204041 23 5 8.0 19.3 0.00 0.00 0.00 38 1011.0
20260502203539 23 34 6.4 19.3 0.00 0.00 0.00 38 1011.1
20260502203336 23 5 6.4 17.7 0.00 0.00 0.00 38 1011.0
20260502202537 23 21 8.0 22.5 0.00 0.00 0.00 39 1011.1
20260502202039 22 312 8.0 22.5 0.00 0.00 0.00 40 1011.3
20260502201536 22 32 8.0 19.3 0.00 0.00 0.00 39 1011.3
20260502201320 22 355 8.0 19.3 0.00 0.00 0.00 41 1011.3
20260502200536 22 342 6.4 17.7 0.00 0.00 0.00 40 1011.3
20260502200036 22 40 4.8 14.5 0.00 0.00 0.00 41 1011.4
20260502195823 22 313 6.4 12.9 0.00 0.00 0.00 41 1011.4
20260502195045 22 9 6.4 16.1 0.00 0.00 0.00 40 1011.5
20260502194536 22 27 6.4 16.1 0.00 0.00 0.00 41 1011.6
20260502194031 22 12 6.4 17.7 0.00 0.00 0.00 41 1011.5
20260502193524 22 344 6.4 17.7 0.00 0.00 0.00 41 1011.6
20260502193019 21 34 6.4 16.1 0.00 0.00 0.00 43 1011.7
20260502192534 21 340 6.4 16.1 0.00 0.00 0.00 42 1011.7
20260502192529 21 5 6.4 14.5 0.00 0.00 0.00 42 1011.7
20260502191740 21 43 6.4 16.1 0.00 0.00 0.00 43 1011.7
20260502191003 21 32 6.4 14.5 0.00 0.00 0.00 44 1011.8
20260502190719 21 17 4.8 14.5 0.00 0.00 0.00 44 1011.8
20260502185946 21 348 4.8 11.3 0.00 0.00 0.00 44 1011.8
20260502185715 21 36 4.8 14.5 0.00 0.00 0.00 45 1011.8
20260502184929 20 26 4.8 14.5 0.00 0.00 0.00 46 1011.9
20260502184432 20 9 4.8 14.5 0.00 0.00 0.00 47 1012.0
20260502183920 20 50 4.8 14.5 0.00 0.00 0.00 48 1012.0
20260502183411 20 348 3.2 14.5 0.00 0.00 0.00 47 1012.0
20260502182910 20 28 4.8 14.5 0.00 0.00 0.00 49 1012.1
20260502182908 20 47 4.8 14.5 0.00 0.00 0.00 48 1012.1
20260502182133 19 22 6.4 14.5 0.00 0.00 0.00 51 1012.2
20260502181356 19 311 6.4 14.5 0.00 0.00 0.00 51 1012.2
20260502180857 19 5 6.4 14.5 0.00 0.00 0.00 50 1012.2
20260502180356 18 322 4.8 12.9 0.00 0.00 0.00 51 1012.2
20260502170343 16 44 3.2 6.4 0.00 0.00 0.00 60 1012.3
20260502164339 15 323 3.2 6.4 0.00 0.00 0.00 63 1012.3
20260502164122 15 345 3.2 6.4 0.00 0.00 0.00 63 1012.4
20260502163337 15 85 3.2 6.4 0.00 0.00 0.00 63 1012.3
20260502162838 15 103 1.6 6.4 0.00 0.00 0.00 63 1012.3
20260502162619 15 109 1.6 4.8 0.00 0.00 0.00 64 1012.3
20260502161841 14 113 1.6 4.8 0.00 0.00 0.00 65 1012.3
20260502161635 14 142 0.0 4.8 0.00 0.00 0.00 65 1012.3
20260502160339 13 143 0.0 0.0 0.00 0.00 0.00 66 1012.2
20260502152337 12 143 0.0 3.2 0.00 0.00 0.00 69 1012.1
20260502151836 12 143 0.0 3.2 0.00 0.00 0.00 69 1012.2
20260502151341 12 143 0.0 1.6 0.00 0.00 0.00 68 1012.1
20260502150824 12 143 0.0 1.6 0.00 0.00 0.00 69 1012.2
20260502150318 12 143 0.0 1.6 0.00 0.00 0.00 69 1012.1
20260502123553 10 311 0.0 0.0 0.00 0.00 0.00 78 1011.1
20260502123548 10 311 0.0 3.2 0.00 0.00 0.00 77 1011.1
20260502123543 10 311 0.0 0.0 0.00 0.00 0.00 78 1011.4
20260502122004 10 311 0.0 3.2 0.00 0.00 0.00 76 1011.1
20260502121456 11 311 0.0 0.0 0.00 0.00 0.00 75 1011.1
20260502121219 11 309 0.0 0.0 0.00 0.00 0.00 75 1011.3
20260502120447 11 309 0.0 0.0 0.00 0.00 0.00 75 1011.3
20260502115707 11 309 0.0 0.0 0.00 0.00 0.00 74 1011.3
20260502114940 11 309 0.0 0.0 0.00 0.00 0.00 74 1011.1
20260502113914 11 309 0.0 0.0 0.00 0.00 0.00 72 1011.3
20260502113408 11 309 0.0 0.0 0.00 0.00 0.00 72 1011.3
20260502112905 11 309 0.0 0.0 0.00 0.00 0.00 72 1011.1
20260502112357 11 309 0.0 1.6 0.00 0.00 0.00 72 1011.3
20260502111850 12 309 0.0 3.2 0.00 0.00 0.00 72 1011.3
20260502111622 12 309 1.6 4.8 0.00 0.00 0.00 72 1011.3
20260502110838 12 309 1.6 4.8 0.00 0.00 0.00 72 1011.3
20260502110614 12 310 1.6 3.2 0.00 0.00 0.00 72 1011.4
20260502105830 12 310 1.6 4.8 0.00 0.00 0.00 72 1011.4
20260502105822 12 310 1.6 4.8 0.00 0.00 0.00 72 1011.5
20260502105602 12 310 1.6 4.8 0.00 0.00 0.00 72 1011.5
20260502105334 12 310 1.6 4.8 0.00 0.00 0.00 72 1011.5
20260502104833 12 311 0.0 3.2 0.00 0.00 0.00 72 1011.4
20260502104619 12 311 0.0 1.6 0.00 0.00 0.00 71 1011.3
20260502103831 12 311 0.0 0.0 0.00 0.00 0.00 71 1011.4
20260502103552 12 311 0.0 0.0 0.00 0.00 0.00 70 1011.4
20260502102830 12 311 0.0 1.6 0.00 0.00 0.00 69 1011.4
20260502102331 11 311 1.6 4.8 0.00 0.00 0.00 69 1011.4
20260502101833 11 311 1.6 4.8 0.00 0.00 0.00 68 1011.4
20260502101331 12 328 0.0 3.2 0.00 0.00 0.00 66 1011.4
20260502100830 12 330 0.0 0.0 0.00 0.00 0.00 66 1011.4
20260502100330 12 330 0.0 0.0 0.00 0.00 0.00 65 1011.4
20260502090829 13 330 0.0 0.0 0.00 0.00 0.00 62 1011.5
20260502090328 13 330 0.0 0.0 0.00 0.00 0.00 61 1011.6
20260502071248 16 345 4.8 14.5 0.00 0.00 0.00 59 1011.6
20260502070748 16 336 4.8 11.3 0.00 0.00 0.00 60 1011.9
20260502070247 16 311 6.4 11.3 0.00 0.00 0.00 59 1012.2
20260502070034 17 275 4.8 11.3 0.00 0.00 0.00 57 1012.4
20260502065245 17 229 4.8 14.5 0.00 0.00 0.00 56 1012.4
20260502064744 17 255 6.4 14.5 0.00 0.00 0.00 55 1012.4
20260502064242 17 259 6.4 14.5 0.00 0.00 0.00 53 1012.4
20260502063756 17 261 6.4 14.5 0.00 0.00 0.00 51 1012.4
20260502063248 17 260 4.8 11.3 0.00 0.00 0.00 52 1012.3
20260502063023 17 265 6.4 12.9 0.00 0.00 0.00 52 1012.1
20260502062239 17 273 4.8 12.9 0.00 0.00 0.00 52 1012.0
20260502061740 17 298 4.8 12.9 0.00 0.00 0.00 51 1011.7
20260502061242 17 309 3.2 8.0 0.00 0.00 0.00 51 1011.8
20260502060740 17 330 3.2 9.7 0.00 0.00 0.00 51 1011.7
20260502060242 17 317 4.8 9.7 0.00 0.00 0.00 50 1011.7
20260502055733 17 314 3.2 8.0 0.00 0.00 0.00 50 1011.5
20260502055227 17 334 3.2 9.7 0.00 0.00 0.00 49 1011.5
20260502054721 17 350 4.8 9.7 0.00 0.00 0.00 49 1011.4
20260502054455 17 349 4.8 12.9 0.00 0.00 0.00 48 1011.5
20260502053709 17 342 4.8 14.5 0.00 0.00 0.00 48 1011.4
20260502053204 18 348 4.8 16.1 0.00 0.00 0.00 48 1011.4
20260502052926 18 346 6.4 16.1 0.00 0.00 0.00 48 1011.4
20260502052204 18 355 8.0 17.7 0.00 0.00 0.00 47 1011.3
20260502051922 18 350 6.4 17.7 0.00 0.00 0.00 47 1011.3
20260502051211 18 355 6.4 16.1 0.00 0.00 0.00 46 1011.3
20260502050709 18 336 8.0 17.7 0.00 0.00 0.00 46 1011.4
20260502050209 18 340 8.0 17.7 0.00 0.00 0.00 46 1011.4
20260502045705 18 355 4.8 16.1 0.00 0.00 0.00 45 1011.3
20260502045210 18 347 4.8 14.5 0.00 0.00 0.00 44 1011.3
20260502044705 18 350 4.8 14.5 0.00 0.00 0.00 44 1011.4
20260502044645 19 342 4.8 14.5 0.00 0.00 0.00 44 1011.4
20260502044424 19 342 4.8 14.5 0.00 0.00 0.00 44 1011.4
20260502043926 19 332 4.8 14.5 0.00 0.00 0.00 43 1011.3
20260502043211 19 328 6.4 16.1 0.00 0.00 0.00 43 1011.3
20260502042155 19 350 8.0 19.3 0.00 0.00 0.00 42 1010.9
20260502041655 20 294 11.3 20.9 0.00 0.00 0.00 42 1010.7
20260502041155 20 344 12.9 24.1 0.00 0.00 0.00 41 1010.7
20260502040656 20 350 12.9 24.1 0.00 0.00 0.00 41 1010.6
20260502040155 20 336 11.3 22.5 0.00 0.00 0.00 41 1010.4
20260502035656 20 322 8.0 20.9 0.00 0.00 0.00 41 1010.2
20260502035429 20 346 4.8 16.1 0.00 0.00 0.00 40 1010.2
20260502034929 20 328 6.4 16.1 0.00 0.00 0.00 40 1010.1
20260502034148 20 286 9.7 24.1 0.00 0.00 0.00 40 1010.1
20260502033643 20 328 9.7 24.1 0.00 0.00 0.00 39 1009.9
20260502033413 20 318 8.0 17.7 0.00 0.00 0.00 39 1010.3
20260502032633 20 304 8.0 19.3 0.00 0.00 0.00 39 1010.3
20260502032125 20 311 9.7 19.3 0.00 0.00 0.00 38 1010.2
20260502031617 21 320 9.7 20.9 0.00 0.00 0.00 38 1009.9
20260502031347 21 320 11.3 22.5 0.00 0.00 0.00 37 1009.7
20260502030607 21 317 11.3 22.5 0.00 0.00 0.00 36 1009.7
20260502030104 21 335 11.3 22.5 0.00 0.00 0.00 35 1009.7
20260502025555 21 323 12.9 25.7 0.00 0.00 0.00 34 1009.7
20260502025324 22 319 12.9 25.7 0.00 0.00 0.00 32 1009.7
20260502024820 22 309 12.9 22.5 0.00 0.00 0.00 30 1009.7
20260502024037 22 327 12.9 29.0 0.00 0.00 0.00 29 1009.5
20260502023531 23 315 9.7 29.0 0.00 0.00 0.00 28 1009.3
20260502023024 23 331 4.8 17.7 0.00 0.00 0.00 25 1009.3
20260502022518 23 348 4.8 11.3 0.00 0.00 0.00 26 1009.2
20260502022012 23 329 3.2 11.3 0.00 0.00 0.00 25 1009.1
20260502021506 23 264 6.4 17.7 0.00 0.00 0.00 24 1009.1
20260502021008 23 15 6.4 17.7 0.00 0.00 0.00 24 1009.2
20260502020454 23 355 6.4 20.9 0.00 0.00 0.00 24 1009.2
20260502020223 24 15 6.4 20.9 0.00 0.00 0.00 24 1009.2
20260502015442 24 25 8.0 20.9 0.00 0.00 0.00 24 1009.3
20260502014936 23 350 11.3 22.5 0.00 0.00 0.00 24 1009.4
20260502014430 24 21 6.4 22.5 0.00 0.00 0.00 24 1009.7
20260502013924 25 34 4.8 16.1 0.00 0.00 0.00 24 1009.6
20260502013418 25 24 6.4 16.1 0.00 0.00 0.00 23 1009.4
20260502012913 25 0 8.0 16.1 0.00 0.00 0.00 23 1009.1
20260502012407 25 11 8.0 17.7 0.00 0.00 0.00 23 1008.9
20260502012125 25 322 8.0 17.7 0.00 0.00 0.00 23 1008.9
20260502011354 25 335 4.8 12.9 0.00 0.00 0.00 23 1008.9
20260502010848 25 343 4.8 14.5 0.00 0.00 0.00 22 1008.9
20260502010620 25 355 4.8 14.5 0.00 0.00 0.00 21 1008.7
20260502010116 25 49 3.2 12.9 0.00 0.00 0.00 22 1008.7
20260502005330 25 355 3.2 11.3 0.00 0.00 0.00 21 1008.9
20260502004824 25 342 1.6 6.4 0.00 0.00 0.00 21 1009.0
20260502004555 26 48 3.2 8.0 0.00 0.00 0.00 21 1008.9
20260502003813 26 44 3.2 8.0 0.00 0.00 0.00 20 1008.9
20260502003306 26 344 3.2 6.4 0.00 0.00 0.00 20 1008.9
20260502003024 26 5 1.6 6.4 0.00 0.00 0.00 19 1008.9
20260502002527 26 132 1.6 4.8 0.00 0.00 0.00 20 1008.9
20260502001749 26 181 1.6 6.4 0.00 0.00 0.00 19 1009.0
20260502001242 26 181 1.6 8.0 0.00 0.00 0.00 19 1009.0
20260502000739 26 171 1.6 8.0 0.00 0.00 0.00 20 1009.1
20260502000230 26 188 3.2 8.0 0.00 0.00 0.00 19 1009.1
20260501235725 26 189 3.2 8.0 0.00 0.00 0.00 19 1009.1
20260501235218 26 201 3.2 8.0 0.00 0.00 0.00 21 1009.2
20260501234712 26 219 4.8 11.3 0.00 0.00 0.00 20 1009.2
20260501234207 26 192 4.8 11.3 0.00 0.00 0.00 20 1009.3
20260501233708 26 213 4.8 17.7 0.00 0.00 0.00 20 1009.4
20260501233426 26 207 4.8 17.7 0.00 0.00 0.00 20 1009.4
20260501232923 26 81 3.2 12.9 0.00 0.00 0.00 19 1009.4
20260501232147 27 70 4.8 12.9 0.00 0.00 0.00 19 1009.4
20260501231645 27 90 3.2 12.9 0.00 0.00 0.00 20 1009.5
20260501231142 27 119 3.2 19.3 0.00 0.00 0.00 19 1009.6
20260501230640 27 145 4.8 19.3 0.00 0.00 0.00 19 1009.7
20260501230141 27 69 6.4 19.3 0.00 0.00 0.00 20 1009.7
20260501225640 27 129 4.8 19.3 0.00 0.00 0.00 19 1009.8
20260501225140 27 38 4.8 17.7 0.00 0.00 0.00 20 1009.9
20260501224640 27 88 4.8 17.7 0.00 0.00 0.00 19 1010.1
20260501224140 27 111 3.2 14.5 0.00 0.00 0.00 20 1010.1
20260501223641 27 29 4.8 19.3 0.00 0.00 0.00 20 1010.3
20260501223140 26 5 6.4 19.3 0.00 0.00 0.00 20 1010.3
20260501222909 26 5 4.8 17.7 0.00 0.00 0.00 21 1010.4
20260501222136 26 75 4.8 17.7 0.00 0.00 0.00 20 1010.4
20260501221636 26 77 3.2 12.9 0.00 0.00 0.00 20 1010.5
20260501221145 26 53 4.8 12.9 0.00 0.00 0.00 21 1010.6
20260501220139 26 91 4.8 16.1 0.00 0.00 0.00 20 1010.8
20260501220132 26 84 4.8 16.1 0.00 0.00 0.00 20 1010.9
20260501215135 26 109 4.8 16.1 0.00 0.00 0.00 20 1011.0
20260501214633 26 16 3.2 14.5 0.00 0.00 0.00 20 1011.1
20260501214130 26 103 1.6 11.3 0.00 0.00 0.00 20 1011.3
20260501213631 26 104 3.2 14.5 0.00 0.00 0.00 19 1011.4
20260501213412 26 123 4.8 14.5 0.00 0.00 0.00 20 1011.4
20260501212629 26 131 4.8 14.5 0.00 0.00 0.00 20 1011.5
20260501212130 26 133 4.8 14.5 0.00 0.00 0.00 19 1011.5
20260501211905 26 126 4.8 14.5 0.00 0.00 0.00 21 1011.5
20260501211135 26 123 6.4 16.1 0.00 0.00 0.00 20 1011.6
20260501210909 26 112 4.8 16.1 0.00 0.00 0.00 20 1011.6